,,PA_Meas_PMT16A,,PR_Meas_QMR101_102,,RH_Meas_QMH101,,SR_Meas_QMS101,,TA_Meas_QMH101,,GenWind,,GenWind,
time,status,PA,status,PR,status,RH,status,SR,status,TA,status,DirAvg,status,SpdAvg,
2012-12-20, 00:00:04,VALID,916.658,VALID,0,VALID,94.6523,VALID,0,VALID,20.1724,VALID,243,VALID,0,
2012-12-20, 00:01:04,VALID,916.665,VALID,0,VALID,94.6523,VALID,0,VALID,20.1529,VALID,243,VALID,0,
2012-12-20, 00:02:04,VALID,916.654,VALID,0,VALID,94.7438,VALID,0,VALID,20.1529,VALID,243,VALID,0,
2012-12-20, 00:03:04,VALID,916.672,VALID,0,VALID,94.6142,VALID,0.107441,VALID,20.1529,VALID,243,VALID,0,
2012-12-20, 00:04:04,VALID,916.648,VALID,0,VALID,94.5151,VALID,0,VALID,20.1334,VALID,243,VALID,0,
2012-12-20, 00:05:04,VALID,916.622,VALID,0,VALID,94.4465,VALID,0.107441,VALID,20.1724,VALID,243,VALID,0,
2012-12-20, 00:06:04,VALID,916.666,VALID,0,VALID,94.4236,VALID,0,VALID,20.1513,VALID,162,VALID,0,
2012-12-20, 00:07:04,VALID,916.659,VALID,0,VALID,94.4008,VALID,0,VALID,20.1724,VALID,162,VALID,0,
2012-12-20, 00:08:04,VALID,916.652,VALID,0,VALID,94.4313,VALID,0,VALID,20.1724,VALID,162,VALID,0,
2012-12-20, 00:09:04,VALID,916.642,VALID,0,VALID,94.4922,VALID,0,VALID,20.1724,VALID,162,VALID,0,
2012-12-20, 00:10:04,VALID,916.613,VALID,0,VALID,94.5456,VALID,0,VALID,20.1529,VALID,162,VALID,0,
2012-12-20, 00:11:04,VALID,916.601,VALID,0,VALID,94.6371,VALID,0,VALID,20.1529,VALID,162,VALID,0,
2012-12-20, 00:12:04,VALID,916.594,VALID,0,VALID,94.6981,VALID,0,VALID,20.1139,VALID,162,VALID,0,
2012-12-20, 00:13:04,VALID,916.565,VALID,0,VALID,94.7209,VALID,0,VALID,20.1139,VALID,162,VALID,0,
2012-12-20, 00:14:04,VALID,916.532,VALID,0,VALID,94.7209,VALID,0,VALID,20.0944,VALID,162,VALID,0,
2012-12-20, 00:15:04,VALID,916.549,VALID,0,VALID,94.7438,VALID,0,VALID,20.0944,VALID,137,VALID,0,
2012-12-20, 00:16:04,VALID,916.52,VALID,0,VALID,94.7667,VALID,0,VALID,20.0944,VALID,142,VALID,0,
2012-12-20, 00:17:04,VALID,916.525,VALID,0,VALID,94.8124,VALID,0,VALID,20.0944,VALID,128,VALID,0,
2012-12-20, 00:18:04,VALID,916.486,VALID,0,VALID,94.8429,VALID,0,VALID,20.0733,VALID,135,VALID,0,
2012-12-20, 00:19:04,VALID,916.469,VALID,0,VALID,94.8505,VALID,0,VALID,20.0733,VALID,137,VALID,0,
2012-12-20, 00:20:04,VALID,916.441,VALID,0,VALID,94.9115,VALID,0,VALID,20.0944,VALID,135,VALID,0,
2012-12-20, 00:21:04,VALID,916.44,VALID,0,VALID,94.9649,VALID,0,VALID,20.0944,VALID,112,VALID,0,
2012-12-20, 00:22:04,VALID,916.431,VALID,0,VALID,95.0106,VALID,0,VALID,20.0749,VALID,119,VALID,0,
2012-12-20, 00:23:04,VALID,916.412,VALID,0,VALID,94.9573,VALID,0,VALID,20.0749,VALID,153,VALID,0,
2012-12-20, 00:24:04,VALID,916.432,VALID,0,VALID,95.003,VALID,0,VALID,20.0749,VALID,137,VALID,0,
2012-12-20, 00:25:04,VALID,916.424,VALID,0,VALID,95.0259,VALID,0,VALID,20.0944,VALID,160,VALID,0,
2012-12-20, 00:26:04,VALID,916.438,VALID,0,VALID,95.0945,VALID,0.107441,VALID,20.1139,VALID,165,VALID,0,
2012-12-20, 00:27:04,VALID,916.429,VALID,0,VALID,95.0945,VALID,0,VALID,20.1139,VALID,165,VALID,0,
2012-12-20, 00:28:04,VALID,916.437,VALID,0,VALID,95.1936,VALID,0,VALID,20.1334,VALID,165,VALID,0,
2012-12-20, 00:29:04,VALID,916.392,VALID,0,VALID,95.1479,VALID,0,VALID,20.1529,VALID,165,VALID,0,
2012-12-20, 00:30:04,VALID,916.393,VALID,0,VALID,95.0716,VALID,0,VALID,20.1349,VALID,165,VALID,0,
2012-12-20, 00:31:04,VALID,916.364,VALID,0,VALID,95.0488,VALID,0,VALID,20.0928,VALID,165,VALID,0,
2012-12-20, 00:32:04,VALID,916.363,VALID,0,VALID,95.1174,VALID,0,VALID,20.1139,VALID,165,VALID,0,
2012-12-20, 00:33:04,VALID,916.336,VALID,0,VALID,95.186,VALID,0,VALID,20.1139,VALID,165,VALID,0,
2012-12-20, 00:34:04,VALID,916.311,VALID,0,VALID,95.2927,VALID,0,VALID,20.0944,VALID,165,VALID,0,
2012-12-20, 00:35:04,VALID,916.286,VALID,0,VALID,95.3766,VALID,0,VALID,20.0944,VALID,165,VALID,0,
2012-12-20, 00:36:04,VALID,916.262,VALID,0,VALID,95.4528,VALID,0,VALID,20.0553,VALID,165,VALID,0,
2012-12-20, 00:37:04,VALID,916.233,VALID,0,VALID,95.4985,VALID,0,VALID,20.0343,VALID,165,VALID,0,
2012-12-20, 00:38:04,VALID,916.236,VALID,0,VALID,95.5595,VALID,0,VALID,20.0358,VALID,165,VALID,0,
2012-12-20, 00:39:04,VALID,916.201,VALID,0,VALID,95.6662,VALID,0,VALID,20.0343,VALID,165,VALID,0,
2012-12-20, 00:40:04,VALID,916.159,VALID,0,VALID,95.6586,VALID,0,VALID,20.0358,VALID,165,VALID,0,
2012-12-20, 00:41:04,VALID,916.152,VALID,0,VALID,95.6739,VALID,0,VALID,20.0163,VALID,165,VALID,0,
2012-12-20, 00:42:04,VALID,916.122,VALID,0,VALID,95.7044,VALID,0,VALID,20.0163,VALID,165,VALID,0,
2012-12-20, 00:43:04,VALID,916.093,VALID,0,VALID,95.7196,VALID,0,VALID,19.9968,VALID,165,VALID,0,
2012-12-20, 00:44:04,VALID,916.065,VALID,0,VALID,95.7425,VALID,0,VALID,19.9773,VALID,165,VALID,0,
2012-12-20, 00:45:04,VALID,916.028,VALID,0,VALID,95.7425,VALID,0,VALID,19.9563,VALID,165,VALID,0,
2012-12-20, 00:46:04,VALID,916.027,VALID,0,VALID,95.7806,VALID,0,VALID,19.9383,VALID,165,VALID,0,
2012-12-20, 00:47:04,VALID,916.014,VALID,0,VALID,95.834,VALID,0,VALID,19.9383,VALID,165,VALID,0,
2012-12-20, 00:48:04,VALID,915.974,VALID,0,VALID,95.8797,VALID,0,VALID,19.9383,VALID,165,VALID,0,
2012-12-20, 00:49:04,VALID,915.97,VALID,0,VALID,95.8492,VALID,0,VALID,19.9188,VALID,165,VALID,0,
2012-12-20, 00:50:04,VALID,915.944,VALID,0,VALID,95.8645,VALID,0,VALID,19.8993,VALID,165,VALID,0,
2012-12-20, 00:51:04,VALID,915.941,VALID,0,VALID,95.8416,VALID,0,VALID,19.8993,VALID,165,VALID,0,
2012-12-20, 00:52:04,VALID,915.911,VALID,0,VALID,95.8645,VALID,0,VALID,19.9188,VALID,165,VALID,0,
2012-12-20, 00:53:04,VALID,915.917,VALID,0,VALID,95.8416,VALID,0,VALID,19.8993,VALID,165,VALID,0,
2012-12-20, 00:54:04,VALID,915.896,VALID,0,VALID,95.8721,VALID,0,VALID,19.9188,VALID,165,VALID,0,
2012-12-20, 00:55:04,VALID,915.87,VALID,0,VALID,95.8187,VALID,0,VALID,19.9188,VALID,165,VALID,0,
2012-12-20, 00:56:04,VALID,915.856,VALID,0,VALID,95.8568,VALID,0,VALID,19.9188,VALID,165,VALID,0,
2012-12-20, 00:57:04,VALID,915.838,VALID,0,VALID,95.8111,VALID,0,VALID,19.9383,VALID,165,VALID,0,
2012-12-20, 00:58:04,VALID,915.805,VALID,0,VALID,95.7958,VALID,0,VALID,19.9188,VALID,165,VALID,0,
2012-12-20, 00:59:04,VALID,915.771,VALID,0,VALID,95.7882,VALID,0,VALID,19.9188,VALID,165,VALID,0,
2012-12-20, 01:00:04,VALID,915.765,VALID,0,VALID,95.7958,VALID,0,VALID,19.8993,VALID,165,VALID,0,
2012-12-20, 01:01:04,VALID,915.743,VALID,0,VALID,95.7882,VALID,0,VALID,19.8993,VALID,165,VALID,0,
2012-12-20, 01:02:04,VALID,915.755,VALID,0,VALID,95.7958,VALID,0,VALID,19.8603,VALID,165,VALID,0,
2012-12-20, 01:03:04,VALID,915.738,VALID,0,VALID,95.7882,VALID,0,VALID,19.8603,VALID,158,VALID,0,
2012-12-20, 01:04:04,VALID,915.698,VALID,0,VALID,95.8263,VALID,0,VALID,19.8408,VALID,158,VALID,0,
2012-12-20, 01:05:04,VALID,915.707,VALID,0,VALID,95.8568,VALID,0,VALID,19.8408,VALID,157,VALID,0,
2012-12-20, 01:06:04,VALID,915.674,VALID,0,VALID,95.8873,VALID,0,VALID,19.8213,VALID,154,VALID,0,
2012-12-20, 01:07:04,VALID,915.679,VALID,0,VALID,95.9102,VALID,0,VALID,19.8408,VALID,154,VALID,0,
2012-12-20, 01:08:04,VALID,915.682,VALID,0,VALID,95.9331,VALID,0,VALID,19.8213,VALID,154,VALID,0,
2012-12-20, 01:09:04,VALID,915.652,VALID,0,VALID,95.9178,VALID,0,VALID,19.8018,VALID,154,VALID,0,
2012-12-20, 01:10:05,VALID,915.637,VALID,0,VALID,95.9483,VALID,0,VALID,19.8018,VALID,154,VALID,0,
2012-12-20, 01:11:05,VALID,915.64,VALID,0,VALID,96.0093,VALID,0,VALID,19.8018,VALID,154,VALID,0,
2012-12-20, 01:12:05,VALID,915.603,VALID,0,VALID,96.0322,VALID,0,VALID,19.8018,VALID,154,VALID,0,
2012-12-20, 01:13:05,VALID,915.61,VALID,0,VALID,95.9636,VALID,0,VALID,19.8213,VALID,154,VALID,0,
2012-12-20, 01:14:05,VALID,915.591,VALID,0,VALID,96.0093,VALID,0,VALID,19.8033,VALID,154,VALID,0,
2012-12-20, 01:15:05,VALID,915.576,VALID,0,VALID,96.0017,VALID,0,VALID,19.7628,VALID,154,VALID,0,
2012-12-20, 01:16:05,VALID,915.551,VALID,0,VALID,96.0779,VALID,0,VALID,19.7628,VALID,154,VALID,0,
2012-12-20, 01:17:05,VALID,915.53,VALID,0,VALID,96.0322,VALID,0,VALID,19.7433,VALID,154,VALID,0,
2012-12-20, 01:18:05,VALID,915.508,VALID,0,VALID,95.9864,VALID,0,VALID,19.7043,VALID,154,VALID,0,
2012-12-20, 01:19:05,VALID,915.464,VALID,0,VALID,96.0627,VALID,0,VALID,19.6848,VALID,154,VALID,0,
2012-12-20, 01:20:05,VALID,915.414,VALID,0,VALID,96.116,VALID,0,VALID,19.6668,VALID,154,VALID,0,
2012-12-20, 01:21:05,VALID,915.395,VALID,0,VALID,96.1389,VALID,0,VALID,19.6458,VALID,154,VALID,0,
2012-12-20, 01:22:05,VALID,915.349,VALID,0,VALID,96.2075,VALID,0,VALID,19.6653,VALID,154,VALID,0,
2012-12-20, 01:23:05,VALID,915.3,VALID,0,VALID,96.2228,VALID,0,VALID,19.6653,VALID,154,VALID,0,
2012-12-20, 01:24:05,VALID,915.251,VALID,0,VALID,96.2837,VALID,0,VALID,19.6848,VALID,154,VALID,0,
2012-12-20, 01:25:05,VALID,915.256,VALID,0,VALID,96.299,VALID,0,VALID,19.7043,VALID,154,VALID,0,
2012-12-20, 01:26:05,VALID,915.233,VALID,0,VALID,96.2151,VALID,0,VALID,19.7043,VALID,164,VALID,0,
2012-12-20, 01:27:05,VALID,915.209,VALID,0,VALID,96.2456,VALID,0,VALID,19.7043,VALID,164,VALID,0,
2012-12-20, 01:28:05,VALID,915.163,VALID,0,VALID,96.2228,VALID,0,VALID,19.7253,VALID,164,VALID,0,
2012-12-20, 01:29:05,VALID,915.18,VALID,0,VALID,96.2609,VALID,0,VALID,19.7043,VALID,164,VALID,0,
2012-12-20, 01:30:05,VALID,915.172,VALID,0,VALID,96.2685,VALID,0,VALID,19.6848,VALID,164,VALID,0,
2012-12-20, 01:31:05,VALID,915.153,VALID,0,VALID,96.2837,VALID,0,VALID,19.6653,VALID,164,VALID,0,
2012-12-20, 01:32:05,VALID,915.148,VALID,0,VALID,96.3905,VALID,0,VALID,19.6653,VALID,164,VALID,0,
2012-12-20, 01:33:05,VALID,915.128,VALID,0,VALID,96.3981,VALID,0,VALID,19.6653,VALID,164,VALID,0,
2012-12-20, 01:34:05,VALID,915.07,VALID,0,VALID,96.4133,VALID,0,VALID,19.6653,VALID,164,VALID,0,
2012-12-20, 01:35:05,VALID,915.042,VALID,0,VALID,96.4286,VALID,0,VALID,19.6653,VALID,164,VALID,0,
2012-12-20, 01:36:05,VALID,915.013,VALID,0,VALID,96.4057,VALID,0,VALID,19.6263,VALID,164,VALID,0,
2012-12-20, 01:37:05,VALID,914.989,VALID,0,VALID,96.4362,VALID,0,VALID,19.6458,VALID,164,VALID,0,
2012-12-20, 01:38:05,VALID,914.967,VALID,0,VALID,96.4591,VALID,0,VALID,19.6668,VALID,164,VALID,0,
2012-12-20, 01:39:05,VALID,914.919,VALID,0,VALID,96.4667,VALID,0,VALID,19.6068,VALID,164,VALID,0,
2012-12-20, 01:40:05,VALID,914.876,VALID,0,VALID,96.4438,VALID,0,VALID,19.5873,VALID,164,VALID,0,
2012-12-20, 01:41:05,VALID,914.866,VALID,0,VALID,96.4667,VALID,0,VALID,19.5873,VALID,164,VALID,0,
2012-12-20, 01:42:05,VALID,914.82,VALID,0,VALID,96.4667,VALID,0,VALID,19.5678,VALID,164,VALID,0,
2012-12-20, 01:43:05,VALID,914.824,VALID,0,VALID,96.4972,VALID,0,VALID,19.5678,VALID,164,VALID,0,
2012-12-20, 01:44:05,VALID,914.805,VALID,0,VALID,96.4819,VALID,0,VALID,19.5483,VALID,164,VALID,0,
2012-12-20, 01:45:05,VALID,914.781,VALID,0,VALID,96.4667,VALID,0,VALID,19.4898,VALID,164,VALID,0,
2012-12-20, 01:46:05,VALID,914.742,VALID,0,VALID,96.4438,VALID,0,VALID,19.4913,VALID,164,VALID,0,
2012-12-20, 01:47:05,VALID,914.711,VALID,0,VALID,96.4667,VALID,0,VALID,19.4718,VALID,164,VALID,0,
2012-12-20, 01:48:05,VALID,914.654,VALID,0,VALID,96.5048,VALID,0,VALID,19.4508,VALID,164,VALID,0,
2012-12-20, 01:49:05,VALID,914.649,VALID,0,VALID,96.5124,VALID,0,VALID,19.4508,VALID,164,VALID,0,
2012-12-20, 01:50:05,VALID,914.641,VALID,0,VALID,96.4896,VALID,0,VALID,19.4132,VALID,164,VALID,0,
2012-12-20, 01:51:05,VALID,914.621,VALID,0,VALID,96.3295,VALID,0,VALID,19.3533,VALID,164,VALID,0,
2012-12-20, 01:52:05,VALID,914.572,VALID,0,VALID,96.2609,VALID,0,VALID,19.2948,VALID,164,VALID,0,
2012-12-20, 01:53:05,VALID,914.566,VALID,0,VALID,96.2456,VALID,0,VALID,19.2572,VALID,164,VALID,0,
2012-12-20, 01:54:05,VALID,914.532,VALID,0,VALID,96.3676,VALID,0,VALID,19.2168,VALID,164,VALID,0,
2012-12-20, 01:55:05,VALID,914.553,VALID,0,VALID,96.4438,VALID,0,VALID,19.2182,VALID,164,VALID,0,
2012-12-20, 01:56:05,VALID,914.515,VALID,0,VALID,96.5353,VALID,0,VALID,19.2363,VALID,164,VALID,0,
2012-12-20, 01:57:05,VALID,914.482,VALID,0,VALID,96.5658,VALID,0,VALID,19.2962,VALID,164,VALID,0,
2012-12-20, 01:58:05,VALID,914.477,VALID,0,VALID,96.6344,VALID,0,VALID,19.3143,VALID,164,VALID,0,
2012-12-20, 01:59:05,VALID,914.45,VALID,0,VALID,96.6573,VALID,0,VALID,19.3143,VALID,164,VALID,0,
2012-12-20, 02:00:05,VALID,914.462,VALID,0,VALID,96.6573,VALID,0,VALID,19.2753,VALID,164,VALID,0,
2012-12-20, 02:01:05,VALID,914.423,VALID,0,VALID,96.5963,VALID,0,VALID,19.2168,VALID,164,VALID,0,
2012-12-20, 02:02:05,VALID,914.425,VALID,0,VALID,96.5734,VALID,0,VALID,19.1987,VALID,164,VALID,0,
2012-12-20, 02:03:05,VALID,914.413,VALID,0,VALID,96.5887,VALID,0,VALID,19.1778,VALID,164,VALID,0,
2012-12-20, 02:04:05,VALID,914.392,VALID,0,VALID,96.5734,VALID,0,VALID,19.1193,VALID,164,VALID,0,
2012-12-20, 02:05:05,VALID,914.382,VALID,0,VALID,96.4743,VALID,0,VALID,19.0413,VALID,164,VALID,0,
2012-12-20, 02:06:05,VALID,914.326,VALID,0,VALID,96.5048,VALID,0,VALID,19.0232,VALID,164,VALID,0,
2012-12-20, 02:07:05,VALID,914.279,VALID,0,VALID,96.6192,VALID,0,VALID,19.0427,VALID,160,VALID,0,
2012-12-20, 02:08:05,VALID,914.295,VALID,0,VALID,96.6649,VALID,0,VALID,19.0218,VALID,160,VALID,0,
2012-12-20, 02:09:05,VALID,914.223,VALID,0,VALID,96.7107,VALID,0,VALID,19.0413,VALID,160,VALID,0,
2012-12-20, 02:10:05,VALID,914.223,VALID,0,VALID,96.764,VALID,0,VALID,19.0427,VALID,160,VALID,0,
2012-12-20, 02:11:05,VALID,914.183,VALID,0,VALID,96.7793,VALID,0,VALID,19.0218,VALID,160,VALID,0,
2012-12-20, 02:12:05,VALID,914.175,VALID,0,VALID,96.7716,VALID,0,VALID,19.0232,VALID,160,VALID,0,
2012-12-20, 02:13:05,VALID,914.157,VALID,0,VALID,96.7716,VALID,0,VALID,19.0037,VALID,160,VALID,0,
2012-12-20, 02:14:05,VALID,914.117,VALID,0,VALID,96.7793,VALID,0,VALID,18.9438,VALID,160,VALID,0,
2012-12-20, 02:15:05,VALID,914.082,VALID,0,VALID,96.7716,VALID,0,VALID,18.8867,VALID,160,VALID,0,
2012-12-20, 02:16:05,VALID,914.102,VALID,0,VALID,96.7411,VALID,0,VALID,18.8073,VALID,160,VALID,0,
2012-12-20, 02:17:05,VALID,914.092,VALID,0,VALID,96.7107,VALID,0,VALID,18.8087,VALID,160,VALID,0,
2012-12-20, 02:18:05,VALID,914.099,VALID,0,VALID,96.764,VALID,0,VALID,18.7892,VALID,160,VALID,0,
2012-12-20, 02:19:05,VALID,914.103,VALID,0,VALID,96.8403,VALID,0,VALID,18.8268,VALID,160,VALID,0,
2012-12-20, 02:20:05,VALID,914.092,VALID,0,VALID,96.9165,VALID,0,VALID,18.8672,VALID,160,VALID,0,
2012-12-20, 02:21:05,VALID,914.098,VALID,0,VALID,96.9165,VALID,0,VALID,18.8672,VALID,160,VALID,0,
2012-12-20, 02:22:05,VALID,914.07,VALID,0,VALID,96.9241,VALID,0,VALID,18.8477,VALID,160,VALID,0,
2012-12-20, 02:23:05,VALID,914.049,VALID,0,VALID,96.947,VALID,0,VALID,18.8477,VALID,160,VALID,0,
2012-12-20, 02:24:05,VALID,914.055,VALID,0,VALID,96.947,VALID,0,VALID,18.8282,VALID,160,VALID,0,
2012-12-20, 02:25:05,VALID,914.025,VALID,0,VALID,96.947,VALID,0,VALID,18.7892,VALID,160,VALID,0,
2012-12-20, 02:26:05,VALID,914.044,VALID,0,VALID,96.9089,VALID,0,VALID,18.7503,VALID,160,VALID,0,
2012-12-20, 02:27:05,VALID,914.028,VALID,0,VALID,96.9165,VALID,0,VALID,18.7113,VALID,172,VALID,0,
2012-12-20, 02:28:05,VALID,914.059,VALID,0,VALID,96.947,VALID,0,VALID,18.7113,VALID,172,VALID,0,
2012-12-20, 02:29:05,VALID,914.04,VALID,0,VALID,96.9546,VALID,0,VALID,18.7308,VALID,188,VALID,0,
2012-12-20, 02:30:05,VALID,914.039,VALID,0,VALID,97.0385,VALID,0,VALID,18.8477,VALID,187,VALID,0,
2012-12-20, 02:31:05,VALID,914.055,VALID,0,VALID,97.0613,VALID,0,VALID,18.8073,VALID,186,VALID,0,
2012-12-20, 02:32:05,VALID,914.068,VALID,0,VALID,97.0613,VALID,0,VALID,18.8463,VALID,186,VALID,0,
2012-12-20, 02:33:05,VALID,914.042,VALID,0,VALID,97.0842,VALID,0,VALID,18.8477,VALID,198,VALID,0,
2012-12-20, 02:34:05,VALID,914.054,VALID,0,VALID,97.0994,VALID,0,VALID,18.8672,VALID,199,VALID,0,
2012-12-20, 02:35:05,VALID,914.06,VALID,0,VALID,97.1071,VALID,0,VALID,18.8672,VALID,190,VALID,0,
2012-12-20, 02:36:05,VALID,914.068,VALID,0,VALID,97.1071,VALID,0,VALID,18.8867,VALID,188,VALID,0,
2012-12-20, 02:37:05,VALID,914.082,VALID,0,VALID,97.1223,VALID,0,VALID,18.8867,VALID,181,VALID,0,
2012-12-20, 02:38:05,VALID,914.029,VALID,0,VALID,97.1299,VALID,0,VALID,18.8658,VALID,181,VALID,0,
2012-12-20, 02:39:05,VALID,914.059,VALID,0,VALID,97.1071,VALID,0,VALID,18.8658,VALID,181,VALID,0,
2012-12-20, 02:40:05,VALID,914.056,VALID,0,VALID,97.1376,VALID,0,VALID,18.8867,VALID,182,VALID,0,
2012-12-20, 02:41:05,VALID,914.015,VALID,0,VALID,97.1604,VALID,0,VALID,18.8853,VALID,178,VALID,0,
2012-12-20, 02:42:05,VALID,914.002,VALID,0,VALID,97.1528,VALID,0,VALID,18.9257,VALID,162,VALID,0,
2012-12-20, 02:43:05,VALID,914.038,VALID,0,VALID,97.1986,VALID,0,VALID,18.9633,VALID,165,VALID,0,
2012-12-20, 02:44:05,VALID,914.015,VALID,0,VALID,97.2138,VALID,0,VALID,18.9842,VALID,162,VALID,0,
2012-12-20, 02:45:05,VALID,914.003,VALID,0,VALID,97.1986,VALID,0,VALID,19.0023,VALID,140,VALID,0,
2012-12-20, 02:46:05,VALID,913.99,VALID,0,VALID,97.2138,VALID,0,VALID,19.0218,VALID,162,VALID,0,
2012-12-20, 02:47:05,VALID,914.017,VALID,0,VALID,97.2367,VALID,0,VALID,19.0427,VALID,175,VALID,0,
2012-12-20, 02:48:05,VALID,913.983,VALID,0,VALID,97.229,VALID,0,VALID,19.0622,VALID,163,VALID,0,
2012-12-20, 02:49:05,VALID,913.975,VALID,0,VALID,97.2519,VALID,0,VALID,19.0608,VALID,169,VALID,0,
2012-12-20, 02:50:05,VALID,913.952,VALID,0,VALID,97.2367,VALID,0,VALID,19.0817,VALID,171,VALID,0,
2012-12-20, 02:51:05,VALID,913.991,VALID,0,VALID,97.229,VALID,0,VALID,19.0817,VALID,171,VALID,0,
2012-12-20, 02:52:05,VALID,913.96,VALID,0,VALID,97.2367,VALID,0,VALID,19.0817,VALID,171,VALID,0,
2012-12-20, 02:53:05,VALID,913.937,VALID,0,VALID,97.2367,VALID,0,VALID,19.0622,VALID,171,VALID,0,
2012-12-20, 02:54:05,VALID,913.929,VALID,0,VALID,97.2443,VALID,0.107441,VALID,19.0023,VALID,129,VALID,0,
2012-12-20, 02:55:05,VALID,913.934,VALID,0,VALID,97.229,VALID,0,VALID,18.9842,VALID,129,VALID,0,
2012-12-20, 02:56:05,VALID,913.928,VALID,0,VALID,97.2519,VALID,0,VALID,18.9647,VALID,129,VALID,0,
2012-12-20, 02:57:05,VALID,913.903,VALID,0,VALID,97.2519,VALID,0,VALID,18.9257,VALID,129,VALID,0,
2012-12-20, 02:58:05,VALID,913.935,VALID,0,VALID,97.2519,VALID,0,VALID,18.9452,VALID,128,VALID,0,
2012-12-20, 02:59:05,VALID,913.924,VALID,0,VALID,97.2672,VALID,0,VALID,18.9452,VALID,130,VALID,0,
2012-12-20, 03:00:05,VALID,913.938,VALID,0,VALID,97.2824,VALID,0,VALID,18.9842,VALID,150,VALID,0,
2012-12-20, 03:01:05,VALID,913.979,VALID,0,VALID,97.2824,VALID,0,VALID,19.0037,VALID,139,VALID,0,
2012-12-20, 03:02:05,VALID,913.99,VALID,0,VALID,97.3129,VALID,0,VALID,19.0037,VALID,138,VALID,0,
2012-12-20, 03:03:05,VALID,913.969,VALID,0,VALID,97.3053,VALID,0,VALID,19.0232,VALID,135,VALID,0,
2012-12-20, 03:04:05,VALID,914.005,VALID,0,VALID,97.3129,VALID,0,VALID,19.0427,VALID,134,VALID,0,
2012-12-20, 03:05:05,VALID,913.974,VALID,0,VALID,97.3281,VALID,0,VALID,19.0427,VALID,153,VALID,0,
2012-12-20, 03:06:05,VALID,913.989,VALID,0,VALID,97.3205,VALID,0,VALID,19.0427,VALID,153,VALID,0,
2012-12-20, 03:07:05,VALID,913.981,VALID,0,VALID,97.3358,VALID,0,VALID,19.0427,VALID,126,VALID,0,
2012-12-20, 03:08:05,VALID,913.977,VALID,0,VALID,97.3205,VALID,0,VALID,19.0622,VALID,155,VALID,0,
2012-12-20, 03:09:05,VALID,913.977,VALID,0,VALID,97.3358,VALID,0,VALID,19.0608,VALID,158,VALID,0,
2012-12-20, 03:10:05,VALID,913.982,VALID,0,VALID,97.3434,VALID,0,VALID,19.0803,VALID,149,VALID,0,
2012-12-20, 03:11:05,VALID,913.968,VALID,0,VALID,97.3434,VALID,0,VALID,19.1012,VALID,106,VALID,0,
2012-12-20, 03:12:05,VALID,913.978,VALID,0,VALID,97.351,VALID,0,VALID,19.1012,VALID,96,VALID,0,
2012-12-20, 03:13:05,VALID,913.998,VALID,0,VALID,97.351,VALID,0,VALID,19.0803,VALID,87,VALID,0,
2012-12-20, 03:14:05,VALID,913.991,VALID,0,VALID,97.3586,VALID,0,VALID,19.1402,VALID,117,VALID,0,
2012-12-20, 03:15:05,VALID,913.983,VALID,0,VALID,97.3586,VALID,0,VALID,19.1583,VALID,127,VALID,0,
2012-12-20, 03:16:05,VALID,913.987,VALID,0,VALID,97.3663,VALID,0,VALID,19.1792,VALID,130,VALID,0,
2012-12-20, 03:17:05,VALID,914,VALID,0,VALID,97.3739,VALID,0,VALID,19.1778,VALID,150,VALID,0,
2012-12-20, 03:18:05,VALID,914.008,VALID,0,VALID,97.3586,VALID,0,VALID,19.2182,VALID,144,VALID,0,
2012-12-20, 03:19:05,VALID,914.014,VALID,0,VALID,97.3739,VALID,0,VALID,19.2377,VALID,146,VALID,0,
2012-12-20, 03:20:05,VALID,913.997,VALID,0,VALID,97.3586,VALID,0,VALID,19.2377,VALID,142,VALID,0,
2012-12-20, 03:21:05,VALID,914.028,VALID,0,VALID,97.3968,VALID,0,VALID,19.2572,VALID,174,VALID,0,
2012-12-20, 03:22:05,VALID,914.025,VALID,0,VALID,97.3968,VALID,0,VALID,19.2572,VALID,157,VALID,0,
2012-12-20, 03:23:05,VALID,914.064,VALID,0,VALID,97.3815,VALID,0,VALID,19.2558,VALID,175,VALID,0,
2012-12-20, 03:24:05,VALID,914.064,VALID,0,VALID,97.3739,VALID,0,VALID,19.2767,VALID,178,VALID,0,
2012-12-20, 03:25:05,VALID,914.093,VALID,0,VALID,97.3663,VALID,0,VALID,19.2572,VALID,179,VALID,0,
2012-12-20, 03:26:05,VALID,914.071,VALID,0,VALID,97.3815,VALID,0,VALID,19.2572,VALID,175,VALID,0,
2012-12-20, 03:27:05,VALID,914.071,VALID,0,VALID,97.3891,VALID,0,VALID,19.2767,VALID,188,VALID,0,
2012-12-20, 03:28:05,VALID,914.099,VALID,0,VALID,97.3891,VALID,0,VALID,19.2572,VALID,184,VALID,0,
2012-12-20, 03:29:05,VALID,914.099,VALID,0,VALID,97.3891,VALID,0,VALID,19.2572,VALID,180,VALID,0,
2012-12-20, 03:30:05,VALID,914.077,VALID,0,VALID,97.3891,VALID,0,VALID,19.2767,VALID,173,VALID,0,
2012-12-20, 03:31:05,VALID,914.079,VALID,0,VALID,97.4044,VALID,0,VALID,19.2767,VALID,172,VALID,0,
2012-12-20, 03:32:05,VALID,914.051,VALID,0,VALID,97.3815,VALID,0,VALID,19.2558,VALID,165,VALID,0,
2012-12-20, 03:33:05,VALID,914.062,VALID,0,VALID,97.3968,VALID,0,VALID,19.2558,VALID,176,VALID,0,
2012-12-20, 03:34:05,VALID,914.076,VALID,0,VALID,97.3968,VALID,0,VALID,19.2558,VALID,167,VALID,0,
2012-12-20, 03:35:05,VALID,914.075,VALID,0,VALID,97.3891,VALID,0,VALID,19.2558,VALID,171,VALID,0,
2012-12-20, 03:36:05,VALID,914.066,VALID,0,VALID,97.4044,VALID,0,VALID,19.2753,VALID,169,VALID,0,
2012-12-20, 03:37:05,VALID,914.071,VALID,0,VALID,97.412,VALID,0,VALID,19.2753,VALID,162,VALID,0,
2012-12-20, 03:38:05,VALID,914.048,VALID,0,VALID,97.3891,VALID,0,VALID,19.2962,VALID,162,VALID,0,
2012-12-20, 03:39:05,VALID,914.044,VALID,0,VALID,97.3968,VALID,0,VALID,19.2753,VALID,163,VALID,0,
2012-12-20, 03:40:05,VALID,914.039,VALID,0,VALID,97.3968,VALID,0,VALID,19.2962,VALID,176,VALID,0,
2012-12-20, 03:41:05,VALID,914.044,VALID,0,VALID,97.4044,VALID,0,VALID,19.2948,VALID,177,VALID,0,
2012-12-20, 03:42:05,VALID,914.042,VALID,0,VALID,97.4044,VALID,0,VALID,19.3143,VALID,156,VALID,0,
2012-12-20, 03:43:05,VALID,914.05,VALID,0,VALID,97.412,VALID,0,VALID,19.3143,VALID,182,VALID,0,
2012-12-20, 03:44:05,VALID,914.044,VALID,0,VALID,97.3815,VALID,0,VALID,19.3352,VALID,159,VALID,0,
2012-12-20, 03:45:05,VALID,914.043,VALID,0,VALID,97.3815,VALID,0,VALID,19.3338,VALID,155,VALID,0,
2012-12-20, 03:46:05,VALID,914.017,VALID,0,VALID,97.4044,VALID,0,VALID,19.3547,VALID,142,VALID,0,
2012-12-20, 03:47:05,VALID,913.987,VALID,0,VALID,97.3968,VALID,0,VALID,19.3547,VALID,143,VALID,0,
2012-12-20, 03:48:05,VALID,913.975,VALID,0,VALID,97.4196,VALID,0,VALID,19.3338,VALID,158,VALID,0,
2012-12-20, 03:49:05,VALID,913.956,VALID,0,VALID,97.4044,VALID,0,VALID,19.3143,VALID,119,VALID,0,
2012-12-20, 03:50:05,VALID,913.918,VALID,0,VALID,97.3815,VALID,0,VALID,19.3547,VALID,150,VALID,0,
2012-12-20, 03:51:05,VALID,913.935,VALID,0,VALID,97.3815,VALID,0,VALID,19.3547,VALID,137,VALID,0,
2012-12-20, 03:52:05,VALID,913.949,VALID,0,VALID,97.3968,VALID,0,VALID,19.3338,VALID,131,VALID,0,
2012-12-20, 03:53:04,VALID,913.951,VALID,0,VALID,97.3968,VALID,0,VALID,19.3533,VALID,124,VALID,0,
2012-12-20, 03:54:04,VALID,913.959,VALID,0,VALID,97.3815,VALID,0,VALID,19.3338,VALID,126,VALID,0,
2012-12-20, 03:55:04,VALID,913.968,VALID,0,VALID,97.3815,VALID,0,VALID,19.3742,VALID,158,VALID,0,
2012-12-20, 03:56:04,VALID,913.985,VALID,0,VALID,97.3815,VALID,0,VALID,19.3533,VALID,151,VALID,0,
2012-12-20, 03:57:04,VALID,913.999,VALID,0,VALID,97.3663,VALID,0,VALID,19.3742,VALID,149,VALID,0,
2012-12-20, 03:58:04,VALID,913.989,VALID,0,VALID,97.3663,VALID,0,VALID,19.3742,VALID,147,VALID,0,
2012-12-20, 03:59:04,VALID,913.99,VALID,0,VALID,97.3663,VALID,0,VALID,19.3742,VALID,153,VALID,0,